Other Public Products
Issued by NWS Charleston, SC

Current Version | Previous Version | Graphics & Text | Print | Product List | Glossary On
Versions: 1 2 3 4 5 6 7 8 9 10 11 12 13 14 15 16 17 18 19 20 21 22 23 24 25 26 27 28 29 30 31 32 33 34 35 36 37 38 39 40 41 42 43 44 45 46 47 48 49 50
000 FPUS82 KCHS 240612 OPUCHS TEST...KCHS/KSAV Gateway Observations...TEST National Weather Service Charleston SC 200 AM EDT MON JUL 24 2017 NOTE: "fair" indicates few or no clouds below 12,000 feet with no significant weather and/or obstructions to visibility. SCZ050-WAZ558-NCZ071-TXZ119-213-PAZ071-DCZ001-FLZ074-172-MI076- NYZ176-178-MAZ016-IL014-TNZ027-NJZ106-GAZ044-MD014-240700- ...Gateway Observations for Charleston International... CITY SKY/WX TMP DP RH WIND PRES REMARKS Chas Airport CLOUDY 79 74 84 SW8 29.92F 6HR MIN TEMP: 78; 6HR MAX TEMP: 82; Seattle CLEAR 65 55 70 N10 30.03F 6HR MIN TEMP: 64; 6HR MAX TEMP: 76; Charlotte MOCLDY 73 69 87 W9 29.89F 6HR MIN TEMP: 73; 6HR MAX TEMP: 75; Dallas DFW TSTM 73 72 96 N8 29.98R FOG 6HR MIN TEMP: 73; 6HR MAX TEMP: 97; 6HR PCP: 0.76; Dallas Love TSTM 74 72 93 N6 29.99R 6HR MIN TEMP: 74; 6HR MAX TEMP: 97; 6HR PCP: 0.31; Philladelphia LGT RAIN 72 69 90 NE8 29.77F 6HR MIN TEMP: 72; 6HR MAX TEMP: 74; 6HR PCP: 0.24; Wash National MOCLDY 74 72 93 N5 29.76S 6HR MIN TEMP: 74; 6HR MAX TEMP: 79; 6HR PCP: 0.33; Baltimore CLOUDY 73 72 96 VRB3 29.75R 6HR MIN TEMP: 73; 6HR MAX TEMP: 77; 6HR PCP: 0.18; Miami PTCLDY 83 75 77 E3 30.03S HX 90 6HR MIN TEMP: 83; 6HR MAX TEMP: 86; Detroit CLOUDY 69 66 90 W3 29.82R 6HR MIN TEMP: 68; 6HR MAX TEMP: 80; 6HR PCP: 0.06; Newark CLOUDY 74 66 76 SE9G17 29.82F 6HR MIN TEMP: 74; 6HR MAX TEMP: 75; 6HR PCP: TRACE; Laguardia CLOUDY 73 69 87 E12 29.82F 6HR MIN TEMP: 73; 6HR MAX TEMP: 78; 6HR PCP: TRACE; J F K CLOUDY 74 69 85 E13G21 29.84F 6HR MIN TEMP: 73; 6HR MAX TEMP: 74; 6HR PCP: TRACE; Boston Logan CLOUDY 64 57 78 CALM N/A 6HR MIN TEMP: 63; 6HR MAX TEMP: 65; Ft. Lauderdale PTCLDY 84 76 76 S5 30.01F HX 93 6HR MIN TEMP: 83; 6HR MAX TEMP: 85; Chicago O`Hare MOCLDY 70 63 78 NE12 29.90R 6HR MIN TEMP: 70; 6HR MAX TEMP: 75; Chicago Midway MOCLDY 71 65 81 N13 29.90R 6HR MIN TEMP: 71; 6HR MAX TEMP: 76; Houston Bush CLOUDY 83 74 74 SW8 29.93R 6HR MIN TEMP: 83; 6HR MAX TEMP: 91; Houston Hobby MOCLDY 82 75 79 SW5 29.94R 6HR MIN TEMP: 82; 6HR MAX TEMP: 90; Nashville CLOUDY 74 69 85 S8 29.94R 6HR MIN TEMP: 74; 6HR MAX TEMP: 82; Atlanta PTCLDY 79 74 84 SE3 29.94S 6HR MIN TEMP: 79; 6HR MAX TEMP: 85; $$ GAZ044-118-TXZ119-213-NCZ071-DCZ001-MDZ014-506-PAZ021-071-NJZ106- NYZ176-178-MAZ106-OHZ011-021-055-MIZ076-KYZ091-ILZ014-INZ047- MNZ060-ONZ431-240700- ...Gateway Observations for Savannah International... CITY SKY/WX TMP DP RH WIND PRES REMARKS Savannah Arpt CLOUDY N/A N/A N/A S13 29.95F Atlanta PTCLDY 79 74 84 SE3 29.94S 6HR MIN TEMP: 79; 6HR MAX TEMP: 85; Charlotte MOCLDY 73 69 87 W9 29.89F 6HR MIN TEMP: 73; 6HR MAX TEMP: 75; Dallas DFW TSTM 73 72 96 N8 29.98R FOG 6HR MIN TEMP: 73; 6HR MAX TEMP: 97; 6HR PCP: 0.76; Houston Bush CLOUDY 83 74 74 SW8 29.93R 6HR MIN TEMP: 83; 6HR MAX TEMP: 91; Wash National MOCLDY 74 72 93 N5 29.76S 6HR MIN TEMP: 74; 6HR MAX TEMP: 79; 6HR PCP: 0.33; Wash Dulles CLOUDY 73 72 96 CALM 29.75S 6HR MIN TEMP: 73; 6HR MAX TEMP: 77; 6HR PCP: 0.84; Baltimore CLOUDY 73 72 96 VRB3 29.75R 6HR MIN TEMP: 73; 6HR MAX TEMP: 77; 6HR PCP: 0.18; Philadelphia LGT RAIN 72 69 90 NE8 29.77F 6HR MIN TEMP: 72; 6HR MAX TEMP: 74; 6HR PCP: 0.24; Newark CLOUDY 74 66 76 SE9G17 29.82F 6HR MIN TEMP: 74; 6HR MAX TEMP: 75; 6HR PCP: TRACE; Laguardia CLOUDY 73 69 87 E12 29.82F 6HR MIN TEMP: 73; 6HR MAX TEMP: 78; 6HR PCP: TRACE; J F K CLOUDY 74 69 85 E13G21 29.84F 6HR MIN TEMP: 73; 6HR MAX TEMP: 74; 6HR PCP: TRACE; Boston CLOUDY 64 57 78 CALM N/A 6HR MIN TEMP: 63; 6HR MAX TEMP: 65; Pittsburg CLOUDY 69 68 96 W3 29.81S 6HR MIN TEMP: 68; 6HR MAX TEMP: 77; 6HR PCP: 0.40; Akron PTCLDY 68 64 87 W5 29.82R 6HR MIN TEMP: 68; 6HR MAX TEMP: 77; 6HR PCP: TRACE; Cleveland MOCLDY 70 65 84 SW8 29.81S 6HR MIN TEMP: 70; 6HR MAX TEMP: 81; Cincinnati CLEAR 68 68 100 S6 29.87S 6HR MIN TEMP: 68; 6HR MAX TEMP: 79; Columbus CLEAR 66 66 100 CALM 29.83S FOG Detroit CLOUDY 69 66 90 W3 29.82R 6HR MIN TEMP: 68; 6HR MAX TEMP: 80; 6HR PCP: 0.06; Chicago O`Hare MOCLDY 70 63 78 NE12 29.90R 6HR MIN TEMP: 70; 6HR MAX TEMP: 75; Minneapolis CLEAR 64 56 75 NE8 30.03S 6HR MIN TEMP: 64; 6HR MAX TEMP: 74; Indianapolis PTCLDY 72 68 87 NW6 29.85F 6HR MIN TEMP: 72; 6HR MAX TEMP: 81; Toronto Canada CLOUDY 68 57 68 E5 29.73F $$

USA.gov is the U.S. government's official web portal to all federal, state and local government web resources and services.